EW0890 Weather Reports


Display with metric or nautical units.
time (UTC)temp
F
wind
direction
speed
MPH
gust
MPH
rain 1hr
in
rain 24hr
in
rain mn
in
humidity
%
barometer
mb
20220924194557 78 144 7.0 12.0 0.00 0.41 0.01 53 1010.9
20220924193103 77 144 8.0 13.0 0.00 0.41 0.01 54 1010.9
20220924191601 76 143 6.0 16.0 0.00 0.41 0.01 56 1011.4
20220924190057 76 144 8.0 13.0 0.00 0.41 0.01 56 1011.4
20220924184606 76 143 6.0 13.0 0.00 0.41 0.01 57 1011.6
20220924183059 75 143 6.0 10.0 0.00 0.41 0.01 59 1011.9
20220924181555 74 143 3.0 8.0 0.00 0.41 0.01 61 1012.0
20220924180106 74 143 4.0 8.0 0.00 0.41 0.01 61 1012.3
20220924174557 73 143 3.0 8.0 0.00 0.41 0.01 64 1012.6
20220924173059 72 143 4.0 8.0 0.00 0.41 0.01 63 1012.6
20220924171629 72 143 3.0 9.0 0.00 0.41 0.01 65 1012.6
20220924170101 70 143 3.0 8.0 0.00 0.41 0.01 67 1012.8
20220924164558 70 143 2.0 5.0 0.00 0.41 0.01 69 1012.9
20220924163113 69 143 3.0 6.0 0.00 0.41 0.01 68 1013.1
20220924161557 68 143 4.0 8.0 0.00 0.41 0.01 69 1013.3
20220924160101 68 143 2.0 5.0 0.00 0.41 0.01 70 1013.3
20220924154608 66 143 2.0 5.0 0.00 0.41 0.01 72 1013.8
20220924153102 66 143 3.0 7.0 0.00 0.41 0.01 73 1013.9
20220924151626 65 143 3.0 7.0 0.00 0.41 0.01 74 1013.9
20220924150059 64 143 4.0 7.0 0.00 0.41 0.01 75 1014.0
20220924144554 63 143 4.0 9.0 0.00 0.41 0.01 76 1014.1
20220924143056 62 143 4.0 8.0 0.00 0.41 0.01 77 1014.1
20220924141557 61 143 4.0 7.0 0.00 0.41 0.01 80 1014.3
20220924140059 60 143 4.0 7.0 0.00 0.41 0.01 82 1014.5
20220924134708 59 143 3.0 8.0 0.00 0.41 0.01 83 1014.2
20220924133116 58 143 3.0 7.0 0.00 0.41 0.01 84 1014.1
20220924131557 57 143 2.0 7.0 0.00 0.41 0.01 87 1014.2
20220924130105 56 143 3.0 7.0 0.00 0.41 0.01 88 1014.1
20220924124603 54 143 2.0 6.0 0.00 0.41 0.01 91 1014.1
20220924123056 53 143 1.0 3.0 0.00 0.41 0.01 92 1014.0
20220924121600 52 143 0.0 3.0 0.00 0.41 0.01 92 1014.2
20220924120101 51 0 0.0 1.0 0.00 0.41 0.01 91 1014.1
20220924114616 52 143 1.0 4.0 0.00 0.41 0.01 92 1014.3
20220924113059 52 143 0.0 6.0 0.00 0.41 0.01 91 1014.2
20220924111606 52 143 1.0 4.0 0.00 0.41 0.01 90 1014.1
20220924110100 53 143 3.0 7.0 0.00 0.41 0.01 90 1014.1
20220924104620 53 143 3.0 8.0 0.00 0.41 0.01 90 1014.2
20220924103100 53 143 3.0 9.0 0.00 0.41 0.01 90 1014.2
20220924101627 53 143 3.0 9.0 0.00 0.41 0.01 89 1014.2
20220924100104 53 143 3.0 9.0 0.00 0.41 0.01 90 1014.2
20220924094556 52 143 2.0 9.0 0.00 0.41 0.01 90 1014.2
20220924093057 52 143 3.0 8.0 0.00 0.41 0.01 90 1014.3
20220924091622 52 143 2.0 10.0 0.00 0.41 0.01 90 1014.3
20220924090059 52 143 4.0 7.0 0.00 0.41 0.01 91 1014.3
20220924084556 52 143 2.0 6.0 0.00 0.41 0.01 91 1014.6
20220924083107 52 143 4.0 10.0 0.00 0.41 0.01 91 1014.7
20220924081557 52 143 3.0 8.0 0.00 0.41 0.01 91 1015.1
20220924080100 52 143 2.0 7.0 0.00 0.41 0.01 91 1015.5
20220924074601 51 143 2.0 7.0 0.00 0.41 0.01 91 1015.7
20220924073057 51 143 4.0 7.0 0.00 0.41 0.01 91 1015.8
20220924071559 51 143 3.0 9.0 0.00 0.41 0.01 91 1015.9
20220924070102 51 143 3.0 7.0 0.00 0.41 0.01 91 1016.2
20220924064556 51 143 3.0 6.0 0.00 0.41 0.01 91 1016.4
20220924063113 51 143 3.0 6.0 0.01 0.41 0.01 91 1016.7
20220924061622 51 143 3.0 6.0 0.01 0.41 0.01 92 1016.8
20220924060058 51 143 2.0 6.0 0.01 0.41 0.01 92 1016.9
20220924054608 51 143 2.0 5.0 0.00 0.40 0.00 92 1017.2
20220924053057 50 143 2.0 6.0 0.01 0.40 0.00 92 1017.3
20220924051610 50 143 2.0 5.0 0.01 0.40 0.00 92 1017.5
20220924050107 50 143 2.0 6.0 0.01 0.40 0.00 93 1017.7
20220924044611 51 143 1.0 4.0 0.01 0.40 0.40 94 1018.1
20220924043059 51 143 2.0 4.0 0.00 0.39 0.39 94 1017.9
20220924041609 51 0 1.0 3.0 0.02 0.39 0.39 94 1018.7
20220924040101 51 0 0.0 0.0 0.27 0.39 0.39 94 1018.9
20220924034556 51 0 0.0 0.0 0.28 0.39 0.39 94 1019.1
20220924033057 51 0 0.0 1.0 0.28 0.39 0.39 93 1018.6
20220924031601 51 0 0.0 2.0 0.27 0.36 0.36 92 1018.4
20220924030101 51 0 0.0 1.0 0.05 0.12 0.12 92 1018.6
20220924024554 51 143 0.0 2.0 0.08 0.11 0.11 92 1018.0
20220924023056 52 143 1.0 5.0 0.08 0.11 0.11 91 1018.4
20220924021606 53 143 0.0 5.0 0.06 0.09 0.09 91 1018.2
20220924020112 53 143 0.0 4.0 0.04 0.07 0.07 91 1018.3
20220924014603 54 143 2.0 6.0 0.00 0.03 0.03 91 1018.5
20220924013053 54 143 2.0 6.0 0.01 0.03 0.03 91 1017.7
20220924011555 54 143 2.0 6.0 0.01 0.03 0.03 91 1017.4
20220924010058 54 143 2.0 10.0 0.01 0.03 0.03 91 1017.8
20220924004556 54 143 1.0 3.0 0.01 0.03 0.03 90 1018.5
20220924003058 54 0 0.0 1.0 0.00 0.02 0.02 89 1018.5
20220924001556 54 0 0.0 1.0 0.00 0.02 0.02 89 1019.1
20220924000104 55 143 0.0 1.0 0.00 0.02 0.02 89 1018.8
20220923234556 55 0 0.0 0.0 0.01 0.02 0.02 89 1019.3
20220923233106 55 0 0.0 1.0 0.01 0.02 0.02 88 1019.3
20220923231600 55 143 0.0 3.0 0.01 0.02 0.02 88 1018.7
20220923230104 56 143 0.0 2.0 0.02 0.02 0.02 88 1019.2
20220923224608 56 143 0.0 1.0 0.01 0.01 0.01 88 1020.0
20220923223119 56 0 0.0 1.0 0.01 0.01 0.01 86 1019.6
20220923221617 56 143 0.0 2.0 0.01 0.01 0.01 84 1020.0
20220923220108 57 143 0.0 3.0 0.00 0.00 0.00 82 1020.1
20220923214611 58 143 1.0 3.0 0.00 0.00 0.00 80 1020.0
20220923213059 58 143 0.0 2.0 0.00 0.00 0.00 77 1020.3
20220923211609 59 143 0.0 2.0 0.00 0.00 0.00 77 1020.3
20220923210215 59 143 1.0 5.0 0.00 0.00 0.00 74 1020.9
20220923204614 59 143 1.0 4.0 0.00 0.00 0.00 71 1021.0
20220923203057 60 143 2.0 6.0 0.00 0.00 0.00 67 1021.3
20220923201559 60 143 2.0 5.0 0.00 0.00 0.00 64 1021.6
20220923200101 60 143 2.0 6.0 0.00 0.00 0.00 64 1021.8